Theta_e
338 336 332 320 307 304 300 303 305 306 309 314 315 313 313 316 313 307 329 334 333 337 342 341 340 342 343 343 345 346 345 345 345 346 345 345 343 342 339 338 337 336 336 334 333 332 331 331 330
332 333 320 313 303 298 300 306 304 307 316 318 317 318 317 316 323 324 327 333 334 338 341 338 340 342 343 342 345 346 344 343 342 341 340 340 341 341 341 340 338 335 336 335 334 333 332 331 330
327 322 314 307 302 299 301 306 306 312 315 313 316 320 319 319 323 325 332 333 337 338 341 340 342 342 342 342 344 343 342 340 338 337 337 337 336 334 335 337 338 337 335 336 335 334 332 332 332
319 316 310 304 301 306 306 309 310 313 312 316 317 316 322 327 326 330 333 335 337 338 341 341 343 344 343 344 344 341 338 337 336 336 335 335 334 333 332 332 332 335 338 336 335 334 333 333 333
315 310 302 301 302 307 310 310 311 309 309 312 316 315 319 327 331 332 333 335 334 337 340 343 342 343 343 341 339 338 339 337 335 334 334 333 333 332 332 332 331 331 333 334 335 335 334 334 333
308 308 299 297 301 306 308 309 309 307 309 315 316 317 319 328 328 331 333 334 335 336 340 341 336 339 341 341 341 342 340 337 335 334 333 332 332 332 331 331 332 331 330 330 330 330 331 331 331
307 304 300 300 301 304 307 308 307 307 310 312 319 314 320 324 329 331 331 334 333 336 338 338 340 338 334 337 338 340 341 339 338 336 336 334 334 333 333 334 334 333 333 333 333 333 332 332 333
307 305 301 301 301 303 306 307 307 308 308 318 320 312 316 324 328 329 331 332 332 333 334 334 336 337 339 340 333 335 337 337 336 335 333 331 331 332 331 330 331 332 333 334 335 336 335 335 335
310 300 297 301 302 303 307 306 307 310 314 313 317 317 322 327 328 327 326 327 328 330 331 333 334 335 338 338 334 329 329 333 332 332 329 329 334 333 331 328 330 333 333 333 334 334 335 334 331
305 298 299 305 304 303 306 306 306 309 310 312 315 322 326 326 325 323 322 322 323 325 328 331 334 334 335 335 335 334 334 337 336 335 334 334 333 332 330 324 324 327 328 330 332 333 331 327 332
305 300 303 304 306 306 306 306 307 307 306 310 312 318 325 324 323 322 323 324 324 327 328 330 331 331 331 332 333 331 331 333 333 332 334 333 332 331 330 329 328 329 322 330 329 329 329 329 329
303 305 305 307 306 305 305 307 306 307 308 312 317 323 323 323 322 323 323 324 324 324 326 328 329 329 329 330 330 330 331 331 332 333 332 332 331 330 329 327 328 327 328 328 328 328 328 328 328
304 305 306 307 307 306 306 305 306 306 312 318 322 322 322 323 323 325 326 326 326 325 325 327 328 328 328 328 328 328 328 329 329 328 329 330 329 329 328 327 327 328 328 328 328 328 328 328 329
308 307 306 307 306 305 304 304 306 307 319 319 320 320 322 323 324 324 325 325 325 326 326 328 328 329 329 329 329 329 329 329 329 329 329 328 328 328 328 328 328 328 329 329 328 328 328 328 328
308 303 303 303 303 304 305 302 303 310 318 317 317 319 321 322 324 325 326 325 327 327 328 329 330 331 330 331 331 331 331 331 330 330 331 330 330 330 329 329 329 329 328 327 327 327 326 327 329
304 303 296 301 302 304 305 297 305 314 316 315 316 317 319 320 323 324 326 327 328 328 328 329 331 331 331 331 332 331 332 331 331 331 331 331 330 330 330 329 329 330 329 328 328 327 327 328 329
301 295 296 298 300 301 302 299 304 313 314 314 314 316 318 319 321 323 325 326 327 328 329 329 329 330 330 330 330 331 331 331 331 331 330 330 330 329 330 330 331 331 330 328 326 326 325 323 321
294 295 297 295 297 298 298 300 302 309 312 312 313 315 317 318 320 322 324 325 325 325 326 326 327 328 328 329 329 329 328 327 322 320 319 320 321 322 324 323 322 323 322 320 319 319 319 318 317
299 297 297 298 298 297 297 299 302 304 309 309 311 313 315 317 307 312 318 317 314 314 317 321 318 316 325 326 326 325 323 319 315 316 316 316 317 317 317 317 316 316 315 315 315 316 314 314 315
299 297 296 297 298 297 295 297 301 301 305 309 311 311 313 305 305 305 306 307 308 308 309 309 309 310 312 316 316 319 315 313 313 313 312 313 313 313 313 313 312 311 311 311 311 311 311 312 314
299 297 296 296 297 297 295 295 296 299 301 305 309 311 312 305 303 302 302 303 304 304 305 304 305 306 308 311 312 312 312 310 309 307 307 305 306 307 309 308 308 307 308 306 308 309 309 308 312
295 301 300 296 296 291 297 288 294 296 298 299 303 307 306 302 301 300 301 302 302 301 302 302 302 303 304 307 308 308 307 305 304 302 302 301 301 300 302 302 303 303 303 302 303 304 305 306 304
297 301 300 298 296 295 293 291 293 295 294 295 296 299 298 299 300 299 300 300 300 300 299 300 300 299 299 300 302 302 300 299 299 298 298 298 298 297 297 298 298 298 299 299 299 299 300 301 302
300 296 295 294 294 286 293 292 290 292 294 296 294 295 296 298 299 299 299 300 299 300 299 298 297 296 297 298 297 297 297 296 296 295 295 295 296 295 294 295 295 295 295 295 295 296 296 296 296
298 294 284 282 283 284 288 291 292 296 298 296 294 295 297 299 298 298 299 299 299 298 298 298 297 295 296 295 295 295 294 294 293 293 292 292 292 292 291 292 292 292 292 292 293 293 293 293 293
295 294 286 280 280 281 288 287 293 295 296 296 296 297 298 297 298 298 298 298 297 296 296 296 295 294 294 293 293 293 292 292 291 291 290 290 290 290 290 290 290 290 290 290 290 291 291 291 290
292 290 291 282 278 282 286 288 291 295 294 295 296 296 296 297 297 297 297 297 297 296 295 295 294 292 292 291 291 290 290 289 288 288 288 288 288 289 288 288 288 288 288 288 288 288 288 288 288
295 294 286 285 276 275 280 279 283 288 293 294 295 296 296 297 298 298 297 296 296 295 294 293 292 291 290 290 289 288 288 288 287 287 286 286 286 286 286 286 286 286 286 286 287 287 286 286 286
290 288 289 288 284 279 277 281 285 287 296 294 296 296 297 297 298 298 296 296 295 293 292 291 291 290 288 288 288 287 286 286 285 284 284 284 285 284 284 284 284 284 284 285 285 285 285 284 284
293 290 289 284 282 281 282 281 289 288 291 298 297 297 299 300 298 297 296 294 291 291 291 290 290 288 288 287 286 285 285 284 283 283 283 283 282 283 283 283 283 283 283 284 284 284 284 282 282
Wind_Speed
3 2 1 2 3 3 2 3 1 1 2 0 3 4 4 4 2 2 2 6 11 12 10 12 13 14 13 13 12 11 11 13 13 13 12 12 11 11 10 9 9 9 10 10 11 10 10 10 8
2 1 2 1 3 2 3 3 3 3 3 5 5 2 4 3 2 7 9 7 14 12 9 11 11 14 15 12 11 11 11 11 11 11 10 10 9 9 9 9 6 7 8 8 9 9 9 8 8
3 2 2 3 3 3 3 3 4 3 4 1 4 5 2 2 4 11 2 13 12 11 10 10 10 14 14 13 11 11 10 9 9 8 8 8 8 7 6 7 6 7 6 6 6 7 6 6 6
1 3 3 3 4 4 3 1 4 7 1 4 3 7 3 3 9 6 13 14 13 10 10 11 12 14 12 12 12 11 9 8 7 7 7 6 6 6 6 5 5 6 7 5 4 3 5 6 8
3 2 2 2 3 2 3 1 6 6 3 2 1 3 4 3 6 12 15 13 14 10 10 11 12 12 11 11 11 10 9 8 7 6 6 5 5 4 4 5 5 4 5 6 7 5 5 6 8
3 2 2 3 3 3 2 3 4 3 4 3 5 4 4 4 9 10 12 13 13 12 9 9 10 10 10 10 9 9 8 7 6 6 5 5 4 3 2 3 3 4 4 5 5 5 6 7 8
2 2 3 2 2 3 4 5 4 4 5 3 7 5 3 5 7 11 10 11 11 11 10 8 7 9 8 9 9 8 7 6 5 5 4 4 3 2 3 4 5 5 5 5 5 5 6 7 8
3 2 2 2 2 3 4 1 1 1 3 3 3 6 7 8 11 11 10 10 9 10 10 8 7 7 6 6 6 6 5 5 4 3 3 2 2 3 4 5 5 8 9 10 11 10 10 10 11
3 2 3 1 1 1 1 1 1 0 6 1 2 4 3 17 15 12 11 8 8 7 9 8 7 7 6 5 4 3 1 5 4 2 0 1 1 2 3 3 4 6 7 7 8 9 8 8 7
3 2 5 1 1 3 4 1 6 3 3 2 2 4 15 18 15 15 14 12 11 11 9 8 7 7 5 3 3 3 2 2 2 2 1 1 2 3 4 5 6 7 7 8 9 10 9 6 5
4 4 1 1 2 4 3 4 4 6 4 6 7 13 13 18 15 14 13 13 12 10 7 8 7 6 5 3 2 1 1 0 1 3 3 3 2 3 3 3 3 4 3 4 5 6 4 6 5
2 6 3 2 2 5 4 5 2 6 3 3 9 19 15 18 17 15 14 13 10 9 10 8 7 6 6 3 3 2 2 2 3 3 4 3 3 3 4 3 4 3 3 5 4 4 5 7 7
6 4 3 6 2 6 4 4 5 6 3 5 15 18 16 18 16 11 9 9 8 9 8 8 7 7 5 5 3 3 4 3 3 3 4 3 3 4 3 4 4 5 4 4 5 5 5 6 7
7 8 3 5 3 4 3 4 2 1 5 9 15 15 14 17 16 7 8 9 9 7 8 7 8 7 6 5 5 3 3 3 3 3 3 4 4 4 4 4 5 5 4 5 5 6 5 5 6
5 4 2 4 2 4 5 3 5 2 4 9 10 12 14 13 8 11 10 8 8 5 6 8 8 7 6 6 5 4 3 3 3 3 4 5 4 5 5 5 5 5 4 4 4 5 4 5 5
4 2 3 2 3 2 4 7 2 4 7 9 8 8 8 6 9 6 7 6 7 5 7 6 5 7 7 5 4 3 2 2 2 3 3 4 5 4 5 5 5 4 4 3 4 3 5 5 5
6 4 5 2 1 1 4 5 2 2 5 6 6 8 8 6 5 5 5 6 7 6 5 5 5 5 4 4 3 3 1 1 2 2 4 6 5 5 3 3 4 4 3 4 4 4 4 6 7
7 10 5 6 5 3 4 6 0 3 4 6 6 6 7 8 5 4 4 4 3 3 3 4 3 4 4 3 2 2 3 4 6 6 6 8 6 8 7 6 8 6 5 6 6 6 5 6 6
8 8 10 4 3 5 7 5 5 5 4 6 7 7 6 7 3 4 4 4 5 5 5 3 5 2 2 1 2 3 4 5 6 6 9 9 9 9 9 6 7 6 7 7 8 5 7 5 7
6 13 7 2 2 4 4 7 6 5 5 7 8 7 7 5 5 5 5 5 5 5 6 6 6 5 4 3 2 3 5 6 6 6 9 10 10 10 9 9 8 9 7 9 9 8 4 3 3
10 8 6 5 4 2 5 6 4 4 3 5 5 6 5 8 8 6 6 6 7 7 6 8 7 6 5 4 5 5 5 3 3 6 6 9 10 10 10 9 8 8 6 5 5 6 7 4 2
14 8 6 8 9 6 1 4 5 5 6 4 6 8 7 7 5 6 7 6 7 6 5 7 8 8 7 6 6 5 3 4 3 4 5 7 10 10 10 9 8 7 5 7 6 5 5 4 5
4 9 11 9 9 6 3 2 4 5 5 5 5 5 7 7 7 8 7 7 6 5 6 6 9 10 9 9 8 8 10 7 5 5 7 8 8 11 10 9 9 8 5 6 7 7 7 4 4
8 9 6 4 2 6 12 11 5 6 6 4 3 6 9 10 10 9 7 6 7 6 6 7 10 9 9 10 10 10 10 8 6 6 6 5 5 7 10 9 8 8 8 9 7 7 8 7 6
5 10 1 2 4 2 5 8 4 2 2 7 10 9 9 10 10 10 10 5 7 8 7 5 10 10 9 10 10 9 10 11 10 7 6 6 6 5 9 9 9 8 8 8 8 8 8 8 7
9 6 5 6 5 3 4 6 3 3 4 11 11 10 8 8 9 10 10 6 4 8 11 3 8 9 7 10 11 9 9 7 7 7 6 6 5 5 7 7 8 8 9 9 8 6 6 7 7
3 5 2 6 3 3 3 3 1 2 5 11 15 14 10 4 11 12 11 10 4 8 9 2 5 8 9 10 8 9 8 8 8 9 7 5 5 5 6 8 8 9 10 10 9 7 9 8 8
5 6 4 3 4 2 2 4 4 6 8 8 10 14 12 8 8 9 9 10 2 6 7 6 7 9 8 9 7 8 8 8 7 7 8 7 7 8 9 9 9 10 10 9 9 7 9 8 7
7 5 4 4 1 4 4 5 3 8 11 14 13 12 13 11 10 8 8 5 6 4 5 7 7 8 8 7 7 8 8 7 7 8 7 7 8 8 9 8 8 9 8 8 8 8 9 10 10
3 6 4 4 4 1 1 3 1 3 9 12 14 14 13 11 10 10 11 11 9 8 7 7 7 8 6 6 7 8 7 7 7 7 7 7 7 7 8 7 7 7 8 8 10 10 10 11 11
Wind_Direction
109 109 46 33 67 62 278 286 276 146 144 136 102 142 157 54 130 123 123 151 141 142 147 137 137 139 138 134 123 109 98 96 98 97 96 107 110 109 94 90 83 77 72 74 75 74 71 66 59
173 208 41 87 90 81 277 258 219 168 135 132 87 79 49 84 77 118 135 154 145 143 143 140 143 139 137 139 126 113 108 102 96 95 93 90 86 80 85 77 80 93 71 73 72 65 62 58 52
133 69 82 98 106 175 203 221 175 110 148 180 101 50 90 105 121 149 121 142 134 137 139 138 135 137 144 140 133 124 113 106 103 102 100 96 91 85 84 72 51 74 58 71 68 61 57 44 36
80 14 37 106 185 242 203 209 163 132 290 50 121 75 61 350 157 162 141 138 133 135 137 140 136 139 143 139 124 121 120 116 113 112 111 108 104 101 91 77 58 42 25 91 58 58 35 14 4
30 71 55 131 235 256 242 228 158 137 120 90 56 133 86 34 103 134 140 139 142 142 144 146 139 136 136 135 135 135 132 130 128 126 113 103 102 94 80 69 60 48 29 24 21 33 4 351 344
30 81 77 205 224 257 238 156 148 124 132 148 94 109 147 123 135 140 140 138 149 148 140 144 136 135 141 144 144 146 144 136 129 124 113 103 97 92 78 64 34 14 10 3 355 341 332 330 331
60 72 212 250 193 353 350 130 164 153 139 203 144 100 113 165 144 138 135 133 144 147 145 136 141 146 154 156 158 159 154 142 139 136 128 111 93 57 20 4 345 339 336 331 327 323 320 316 319
110 99 254 253 194 100 347 150 304 140 177 110 159 165 173 170 140 126 127 133 140 149 156 155 152 163 174 169 169 172 171 164 155 148 130 104 54 14 0 349 338 330 330 333 333 329 324 321 324
96 74 231 244 191 44 263 89 124 262 112 94 61 139 133 133 134 130 136 144 157 165 171 167 167 176 177 178 176 183 208 187 170 158 136 32 327 316 307 299 305 305 303 301 304 305 309 315 309
119 181 220 242 343 322 346 286 168 143 128 145 84 57 132 140 148 150 160 165 175 181 184 185 177 180 179 186 169 203 226 213 185 197 223 252 272 288 305 302 304 303 301 305 308 306 308 303 302
140 207 199 172 305 343 337 346 173 134 229 199 187 157 147 149 158 159 168 176 185 184 184 192 187 182 184 191 172 197 214 211 258 255 253 267 282 292 288 293 309 312 318 311 317 312 312 311 302
160 239 233 242 53 353 327 310 261 199 240 347 155 158 156 161 170 172 174 181 181 180 190 192 188 183 191 186 192 189 194 215 234 259 270 267 270 276 287 288 292 290 295 294 291 291 298 299 299
181 226 215 258 286 284 286 269 243 233 334 81 131 156 165 172 173 176 175 175 172 185 190 194 182 191 190 204 189 202 211 213 233 251 262 259 272 282 293 291 296 294 299 294 295 293 299 304 305
187 206 218 288 295 261 255 280 133 180 117 116 143 159 170 178 176 150 165 178 181 183 194 184 194 196 181 201 206 211 217 233 240 257 260 250 253 271 283 294 292 288 294 296 294 294 296 290 285
129 168 210 236 252 229 166 296 232 122 137 135 153 159 170 178 165 181 177 179 180 189 179 187 191 186 194 208 211 218 229 238 247 264 276 270 263 270 277 282 285 297 291 276 268 280 272 276 287
130 174 172 266 174 275 140 269 286 162 159 157 154 152 157 148 185 178 191 180 172 168 190 185 185 191 202 213 223 230 240 251 284 296 297 298 297 294 290 295 298 302 302 302 302 307 302 325 332
170 155 171 254 157 128 161 254 322 178 177 169 161 163 156 153 182 196 199 192 183 194 186 191 184 197 205 203 212 225 247 350 359 360 2 3 3 350 310 321 339 344 11 30 4 356 346 334 329
168 204 191 172 210 151 192 256 338 192 207 181 172 171 157 168 187 182 186 192 148 150 162 157 165 175 175 167 157 117 92 70 58 52 48 46 40 37 49 50 38 20 36 28 10 353 357 352 354
171 173 189 177 197 148 206 236 244 169 179 188 193 173 169 165 116 78 104 106 104 76 111 118 121 68 145 141 131 109 92 90 66 55 44 42 41 43 46 51 45 35 45 34 23 355 5 23 356
205 199 171 44 196 143 194 249 248 170 216 198 182 176 176 139 125 92 90 82 69 94 83 75 76 63 66 90 98 103 116 89 79 61 49 43 45 41 46 45 44 41 41 36 30 25 357 353 34
198 197 167 152 182 81 127 288 202 218 204 173 164 161 175 167 148 133 111 100 94 82 88 91 80 69 61 89 104 89 93 80 56 43 48 37 42 45 47 48 47 46 46 47 35 18 15 343 352
208 184 207 152 175 192 154 262 232 190 196 179 175 172 165 144 116 115 121 106 96 90 81 85 81 73 57 53 77 82 90 102 67 68 70 53 43 41 40 41 42 45 35 34 26 16 8 357 347
205 163 179 177 191 139 212 192 257 139 199 198 192 158 131 125 122 114 103 99 91 93 91 79 80 73 69 70 76 87 87 89 88 78 73 53 45 40 34 35 34 35 30 29 25 20 14 12 346
135 87 48 62 141 222 188 193 228 184 181 150 123 129 121 115 105 94 90 100 88 63 74 81 77 60 63 78 76 93 100 98 91 68 66 51 46 39 29 26 29 27 25 22 14 17 20 15 9
129 136 119 169 187 207 348 200 210 174 146 167 151 134 122 122 118 119 107 83 104 89 51 58 96 77 68 72 73 76 88 92 91 79 66 56 43 34 22 23 23 24 22 19 17 19 19 15 12
158 153 166 177 178 133 352 222 214 279 112 112 102 109 108 123 114 103 91 84 79 88 76 17 77 86 90 91 89 79 83 83 78 72 72 61 52 41 23 25 28 24 24 21 21 24 25 13 14
157 160 108 113 55 109 188 279 326 87 89 126 132 126 108 147 120 112 107 92 50 80 74 44 86 85 83 80 82 74 69 72 74 67 58 53 44 36 30 31 29 26 26 24 22 29 20 17 12
137 143 81 2 132 220 250 265 236 200 166 140 139 134 134 136 116 109 106 90 120 96 125 99 82 87 88 80 76 77 75 70 69 66 56 45 40 34 34 30 29 30 31 25 26 26 19 17 15
134 153 89 115 101 146 142 248 193 189 178 165 156 147 147 141 136 125 112 130 113 98 108 117 111 102 92 86 87 79 68 62 61 58 48 42 40 32 36 33 32 32 32 28 30 26 19 18 12
97 144 143 119 199 264 112 270 257 195 174 166 161 159 164 163 160 157 157 155 150 152 136 125 114 101 93 92 81 73 66 57 60 58 47 40 45 39 36 36 40 35 32 27 27 22 18 15 9